sat.trackr.live / text

‹ back to catalog

STARLINK-4285

NORAD 52991 · 2022-076F

PAYLOAD ACTIVE UNKNOWN

§ Identity

Operator
Country
US
Launch date
2022-07-07
Launch site
AFETR
Launch vehicle
Mass (kg)
RCS (m²)

Purposes: comms

External: N2YO · Heavens-Above · Gunter

§ Orbital elements

Epoch: 2026-05-25T02:45:18.268128Z

Period
95.44 min
Inclination
53.2139°
Eccentricity
0.0001019
Mean motion
15.08835302 rev/d
Perigee alt
539.1 km
Apogee alt
540.5 km
Semi-major
6,917.9 km
B*
5.4976e-5
RAAN
121.0372°
Arg perigee
65.4582°
Mean anomaly
294.6517°
Rev number
21,424

§ Raw data

STARLINK-42851 52991U 22076F   26145.11479477  .00000587  00000+0  54976-4 0  99952 52991  53.2139 121.0372 0001019  65.4582 294.6517 15.08835302214240

JSON: /api/v1/satellites/52991 · /tle

For live sub-satellite position, see the globe view (requires WebGL).

§ Visibility from observer

Set your observer location to see the next 7 days of passes ≥ 10°. The values pass through the URL so the page stays shareable.

No JS? Fill the form by hand. The geolocation button needs JavaScript.